Regional Weather Roundup
Issued by NWS Portland, ME

Home | Current Version | Previous Version | Text Only | Print | Product List | Glossary On
Versions: 1 2 3 4 5 6 7 8 9 10 11 12 13 14 15 16 17 18 19 20 21 22 23 24 25 26 27 28 29 30 31 32 33 34 35 36 37 38 39 40 41 42 43 44 45 46 47 48 49 50
000
ASUS41 KGYX 250410
RWRGYX
WEATHER ROUNDUP FOR MAINE AND NEW HAMPSHIRE
NATIONAL WEATHER SERVICE GRAY ME
1200 AM EDT SAT APR 25 2015

MEZ002-005-006-010-012-015-018-020-021-024-026-027-029-250500-
MAINE

CITY           SKY/WX    TMP DP  RH WIND       PRES   REMARKS
PORTLAND       PTCLDY    37  24  59 W6        29.73F
SANFORD        CLOUDY    37  18  44 NW14G23   29.74S
BAR HARBOR     MOCLDY    34  30  86 CALM      29.66S
WISCASSET      CLOUDY    36  24  62 VRB3      29.72S
ROCKLAND       CLOUDY    36  25  64 W10       29.68S
FRYEBURG       MOCLDY    35  22  58 W5G16     29.72S
LEWISTONAUBURN CLOUDY    36  21  55 NW13G20   29.70S
AUGUSTA        PTCLDY    34  22  61 W7        29.69S
WATERVILLE     PTCLDY    36  21  55 W8        29.65S
BANGOR         FLURRIES  35  27  72 W6        29.66S
GREENVILLE       N/A     29  26  89 VRB6G20   29.57F
MILLINOCKET    CLOUDY    35  29  78 W9        29.60F
HOULTON        CLOUDY    34  32  92 SW5       29.55S
PRESQUE ISLE   CLOUDY    34  28  80 NW3       29.55S
FRENCHVILLE    LGT SNOW  32  30  92 N7        29.53S FOG
CARIBOU        LGT SNOW  33  31  92 NW5       29.54S FOG
$$

NHZ002-005-008-009-011-012-014-250500-
NEW HAMPSHIRE

CITY           SKY/WX    TMP DP  RH WIND       PRES   REMARKS
PORTSMOUTH     PTCLDY    37  21  52 W14       29.74F
ROCHESTER      CLOUDY    37  20  50 NW10G20   29.74F
NASHUA         MOCLDY    40  21  46 NW9G16    29.79F
MANCHESTER     PTCLDY    39  20  46 NW13G18   29.77F
CONCORD        CLEAR     36  21  54 NW9       29.78F
LACONIA        CLOUDY    36  19  51 W9        29.75F
PLYMOUTH       CLOUDY    35  27  72 W7G18     29.76F
BERLIN         CLOUDY    32  22  66 VRB5      29.73S
WHITEFIELD     CLOUDY    33  23  66 W3        29.76F
JAFFREY        CLOUDY    36  20  52 VRB5      29.78F
KEENE          CLOUDY    37  19  48 NW9       29.81F
LEBANON        CLOUDY    37  21  52 CALM      29.80F
MT WASHINGTON  SNOW       9   9 100 NW46G52     N/A  VSB 0   WCI -18
$$

VTZ005-007-008-250500-
VERMONT

CITY           SKY/WX    TMP DP  RH WIND       PRES   REMARKS
ST JOHNSBURY     N/A     34  23  64 MISG      29.78R
MONTPELIER     CLOUDY    32  20  61 NW16G23   29.82F
BURLINGTON     CLOUDY    37  21  52 N10       29.85S
$$

MAZ007-012-024-CTZ003-RIZ002-NYZ038-NYZ072-250500-
SOUTHERN NEW ENGLAND AND NY

CITY           SKY/WX    TMP DP  RH WIND       PRES   REMARKS
BOSTON         MOCLDY    42  23  46 NW10      29.79S
WORCESTER      MOCLDY    35  19  52 W13       29.78F
NANTUCKET      MOCLDY    43  25  49 NW15G24   29.78R
PROVIDENCE     PTCLDY    38  20  48 NW12      29.82F
HARTFORD       MOCLDY    38  20  48 NW15      29.85F
ALBANY         PTCLDY    36  20  52 W9        29.90F
NEW YORK CITY  CLEAR     40  22  48 NW16G23   29.93S
$$

ANZ081-ANZ082-ANZ150-NHZ014-MEZ023>029-250500-
COASTAL MARINE OBSERVATIONS

STATION/POSITION TIME  TEMP    WIND        PRES    WAVE
                       AIR SEA DIR/SP/G            HT/PER
                 (UTC) (F)     (DEG/KT/KT) (MB)    (FT/S)
$$

.............KEY..............
   WCI - WIND CHILL
   TC  - TEMPERATURE IN CELSIUS
   VSB - VISIBILITY IN MILES
   HX  - HEAT INDEX
   FAIR- INDICATES FEW OR NO CLOUDS BELOW 12,000 FT, WITH NO
         SIGNIFICANT WEATHER AND/OR OBSTRUCTIONS TO VISIBILITY.





USA.gov is the U.S. government's official web portal to all federal, state and local government web resources and services.